Hourly Data Report for September 27, 2017

All times are specified in Local Standard Time (LST). Add 1 hour to adjust for Daylight Saving Time where and when it is observed.

PETAWAWA AWOS 2
ONTARIO

45°57'00.000" N
77°19'00.000" W
130.10 m
6106396
71625
YWA

Download Data

Hourly Data (September 2017)
Hourly Data Report for September 27, 2017
Temp Definition
°C
Dew Point Temp Definition
°C
Rel Hum Definition
%
Wind Dir Definition
10's deg

Wind Spd Definition
km/h
Visibility Definition
km
Stn Press Definition
kPa
Hmdx Definition


Wind Chill Definition


Weather Definition


TIME
00:00 19.0 18.1 94   0 9.7 99.56     LegendNANA
01:00 18.4 17.5 94   0 6.4 99.57     LegendNANA
02:00 17.8 17.0 95   0 8.0 99.51     LegendNANA
03:00 18.1 17.3 95   0 9.7 99.46     LegendNANA
04:00 19.5 18.6 94   0 9.7 99.40     LegendNANA
05:00 19.5 18.9 96 14 6 6.4 99.37     LegendNANA
06:00 19.5 18.6 94 13 7 8.0 99.33     LegendNANA
07:00 19.7 18.4 92 13 7 9.7 99.33     LegendNANA
08:00 21.3 18.8 86 13 9 14.5 99.28 28   LegendNANA
09:00 22.1 19.4 85 10 7 14.5 99.24 29   LegendNANA
10:00 24.8 18.3 67 28 9 14.5 99.22 31   LegendNANA
11:00 24.3 18.9 72 30 9 14.5 99.24 31   Drizzle
12:00 22.6 19.7 84 28 9 14.5 99.22 30   Rain
13:00 23.3 19.3 78 27 7 14.5 99.17 30   LegendNANA
14:00 23.2 18.1 73 28 20 14.5 99.14 29   LegendNANA
15:00 23.3 14.6 58 27 24 14.5 99.10 27   LegendNANA
16:00 22.8 13.7 56 29 20 14.5 99.12 26   LegendNANA
17:00 21.5 11.1 52 28 26 14.5 99.20     LegendNANA
18:00 19.4 10.7 57 29 19 14.5 99.29     LegendNANA
19:00 17.9 10.7 63 27 9 14.5 99.34     LegendNANA
20:00 17.0 10.5 66 27 9 14.5 99.37     LegendNANA
21:00 16.7 10.7 68 27 13 14.5 99.40     LegendNANA
22:00 16.2 7.6 57 33 30 14.5 99.48     LegendNANA
23:00 14.6 5.1 53 33 32 14.5 99.58     LegendNANA

Notes on Data Quality.

Legend

  • E = Estimated
  • M = Missing
  • NA = Not Available
  • ‡ = Partner data that is not subject to review by the National Climate Archives
Date modified: